Location: Complexul Astronomic Baia Mare
(47.6577°N, 23.5639°E)
Time: 05:52:29
(UTC+03:00)

ISS - Pass Details

Date: 06 March 2017
Orbit: 399 x 409 km, 51.6° (Epoch: 30 March)

Event Time Altitude Azimuth Distance (km) Brightness Sun altitude
Exits shadow 05:46:12 17° 227° (SW) 1,122 -2.1 -12.7°
Maximum altitude 05:48:35 60° 151° (SSE) 476 -3.4 -12.3°
Drops below altitude 10° 05:51:52 10° 70° (ENE) 1,482 0.4 -11.7°
Sets 05:53:58 0° 67° (ENE) 2,347 1.6 -11.4°
